Regional Weather Roundup
Issued by NWS Boston, MA

Home | Current Version | Previous Version | Text Only | Print | Product List | Glossary On
Versions: 1 2 3 4 5 6 7 8 9 10 11 12 13 14 15 16 17 18 19 20 21 22 23 24 25 26 27 28 29 30 31 32 33 34 35 36 37 38 39 40 41 42 43 44 45 46 47 48 49 50
000
ASUS41 KBOX 020510
RWRBOX

REGIONAL WEATHER ROUNDUP
NATIONAL WEATHER SERVICE TAUNTON MA
100 AM EDT SAT AUG 02 2014

NOTE:  "FAIR" INDICATES FEW OR NO CLOUDS BELOW 12,000 FEET WITH NO
SIGNIFICANT WEATHER AND/OR OBSTRUCTIONS TO VISIBILITY.  THE FOLLOWING
OBSERVATION LOCATIONS DO NOT REPORT PRESENT WEATHER...PROVINCETOWN...
SMITHFIELD...BLOCK ISLAND...KEENE...AND OXFORD.

MAZALL-020600-
EASTERN MASSACHUSETTS

CITY           SKY/WX    TMP DP  RH WIND       PRES   REMARKS
BOSTON         CLOUDY    70  64  81 S6        30.22S
BEVERLY        CLOUDY    67  64  90 CALM      30.22R
LAWRENCE       MOCLDY    68  67  96 S5        30.23F
BEDFORD        CLOUDY    67  66  97 S3        30.21R
BLUE HILL        N/A     68  65  90 S9        30.23S
NORWOOD        CLOUDY    69  65  86 CALM      30.22S
MARSHFIELD     CLOUDY    70  68  94 CALM      30.24F
PLYMOUTH       CLOUDY    69  63  81 CALM      30.24S
TAUNTON        CLOUDY    69  66  90 CALM      30.23S
NEW BEDFORD    CLOUDY    68  65  90 SW3       30.23S
$$

MAZALL-020600-
CAPE COD AND THE ISLANDS

CITY           SKY/WX    TMP DP  RH WIND       PRES   REMARKS
FALMOUTH       CLOUDY    68  63  83 S6        30.24F
HYANNIS        CLOUDY    69  63  81 SE5       30.23S
CHATHAM        CLOUDY    64  58  80 CALM      30.25F
PROVINCETOWN   CLOUDY    70  64  83 CALM      30.24S
NANTUCKET      CLOUDY    63  59  87 E6        30.24F
MARTHAS VNYRD  CLOUDY    66  63  90 CALM      30.23F
$$

MAZALL-020600-
CENTRAL AND WESTERN MASSACHUSETTS

CITY           SKY/WX    TMP DP  RH WIND       PRES   REMARKS
WORCESTER      CLOUDY    66  64  93 SW6       30.25R
FITCHBURG      CLOUDY    68  64  87 N5        30.23S
ORANGE         CLOUDY    67  65  93 CALM      30.23S
SPRINGFIELD    CLOUDY    64  64 100 S1        30.21F FOG
WESTFIELD      CLOUDY    65  64  97 CALM      30.22S FOG
NORTH ADAMS    CLOUDY    65  61  87 E5        30.22S
PITTSFIELD     CLOUDY    63  62  97 CALM      30.23S
$$

RIZALL-020600-
RHODE ISLAND

CITY           SKY/WX    TMP DP  RH WIND       PRES   REMARKS
PROVIDENCE     CLOUDY    71  67  87 S5        30.24S
NEWPORT        CLOUDY    70  67  90 SE5       30.23F
BLOCK ISLAND   CLOUDY    70  66  88 SE5       30.23F
SMITHFIELD     CLOUDY    66  61  82 CALM      30.23F
WESTERLY       LGT RAIN  71  68  90 SE3       30.23S
$$

CTZALL-020600-
CONNECTICUT

CITY           SKY/WX    TMP DP  RH WIND       PRES   REMARKS
BRADLEY INTL   CLOUDY    67  64  90 CALM      30.21S
HARTFORD       CLOUDY    70  66  87 CALM      30.21S
BRIDGEPORT     CLOUDY    72  67  84 SE3       30.20F
DANBURY        CLOUDY    69  63  81 CALM      30.23S
GROTON         LGT RAIN  69  69 100 SE6       30.22R
NEW HAVEN      CLOUDY    73  67  81 CALM      30.21S
CHESTER        MOCLDY    68  66  94 CALM      30.24R
MERIDEN        CLOUDY    69  65  86 CALM      30.21F
WILLIMANTIC    CLOUDY    68  66  93 CALM      30.23S
OXFORD         CLOUDY    66  63  88 CALM      30.24F
$$

MEZ002-015-021-024-NHZ003-005-008-011-012-014-VTZ005-008-020600-
NORTHERN NEW ENGLAND

CITY           SKY/WX    TMP DP  RH WIND       PRES   REMARKS
PORTLAND ME    MOCLDY    66  62  87 CALM      30.20F
BANGOR ME      CLOUDY    66  64  93 S5        30.21F
CONCORD NH     CLOUDY    64  63  96 CALM      30.21S
MANCHESTER NH  CLOUDY    69  65  86 S7        30.20S
NASHUA NH      MOCLDY    68  66  93 CALM      30.22S
PORTSMOUTH NH  MOCLDY    63  62  96 CALM      30.21R
JAFFREY NH     MOCLDY    67  64  90 S5        30.24F
KEENE NH       CLOUDY    66  57  72 CALM      30.23S
BURLINGTON VT  PTCLDY    72  61  68 S12       30.16S
MT. WASHINGTON FOG       50  50 100 SW28        N/A  VSB 1/16
$$

NYZ052-076-020600-
EASTERN NEW YORK

CITY           SKY/WX    TMP DP  RH WIND       PRES   REMARKS
ALBANY         CLOUDY    71  64  78 S7        30.19S
NEW YORK CITY  CLOUDY    73  64  73 SE7       30.19S
$$

ANZALL-020600-
MARINE OBSERVATIONS

STATION/POSITION TIME  TEMP    WIND        PRES    VSBY  WAVE
                       AIR SEA DIR/SP/G                  HT/PER
                 (UTC) (F)     (DEG/KT/KT) (MB)    (MI)  (FT/S)
BOSTON BUOY      NOT AVBL
BUZZARDS BAY     NOT AVBL
NANTUCKET SOUND  NOT AVBL
MASS BAY-STELLWA NOT AVBL
ISLE OF SHOALS   NOT AVBL
S OF BLOCK IS    NOT AVBL
$$

......................KEY.........................
  SKY/WX - SKY CONDITION/PRESENT WEATHER
  TMP    - TEMPERATURE IN FAHRENHEIT
  DWPT   - DEWPOINT IN FAHRENHEIT
  RH     - RELATIVE HUMIDITY IN PERCENT
  WIND   - DIRECTION AND SPEED IN MPH
  PRES   - MEAN SEA LEVEL PRESSURE IN INCHES OF HG
  WCI    - WIND CHILL INDEX
  VSB    - VISIBILITY IN MILES
  HX     - HEAT INDEX
  TC     - TEMPERATURE IN CELSIUS
  VRB    - VARIABLE WIND DIRECTION
  N/A    - NOT AVAILABLE



USA.gov is the U.S. government's official web portal to all federal, state and local government web resources and services.